Regional Weather Roundup
Issued by NWS

Home | Current Version | Previous Version | Graphics & Text | Print | Product List | Glossary On
Versions: 1 2 3 4 5 6 7 8 9 10 11 12 13 14 15 16 17 18 19 20 21 22 23 24 25 26 27 28 29 30 31 32 33 34 35 36 37 38 39 40 41 42 43 44 45 46 47 48 49 50
000
ASUS43 KMKX 302000
RWRWI

WISCONSIN REGIONAL WEATHER ROUNDUP
NATIONAL WEATHER SERVICE MILWAUKEE/SULLIVAN WI
300 PM CDT WED JUL 30 2014

NOTE: "FAIR" INDICATES FEW OR NO CLOUDS BELOW 12,000 FEET WITH NO
SIGNIFICANT WEATHER AND/OR OBSTRUCTIONS TO VISIBILITY.

WIZ001-002-006>008-014>016-023>028-302100-
NORTHWEST WISCONSIN

CITY           SKY/WX    TMP DP  RH WIND       PRES   REMARKS
SUPERIOR ARPT  MOSUNNY   73  63  71 CALM      29.98F
ASHLAND        SUNNY     73  60  63 SW8       30.00F
HAYWARD        PTSUNNY   72  56  57 VRB5      30.03F
SIREN          PTSUNNY   74  59  57 W6        30.04F
RICE LAKE      MOSUNNY   75  57  53 W7        30.06S
LADYSMITH      SUNNY     72  55  55 W5        30.07S
EAU CLAIRE     NOT AVBL
MENOMONIE      PTCLDY    78  57  48 W8        30.05S
NEW RICHMOND   MOSUNNY   76  58  53 NW5       30.06S
OSCEOLA        RAIN      75  59  56 NW3       30.07F
$$

WIZ003>005-009-010-017-018-302100-
NORTH CENTRAL WISCONSIN

CITY           SKY/WX    TMP DP  RH WIND       PRES   REMARKS
WOODRUFF       SUNNY     76  53  45 NW10G18   30.03S
RHINELANDER    MOSUNNY   72  49  44 W9G17     30.04F
EAGLE RIVER    PTSUNNY   71  49  45 W7        30.02F
LAND O LAKES   MOSUNNY   72  47  40 W3        30.02F
PHILLIPS       SUNNY     71  53  52 W7        30.03F
TOMAHAWK       SUNNY     70  50  49 W5        30.04F
MEDFORD        SUNNY     70  51  52 W3        30.05F
MERRILL        MOSUNNY   71  52  50 NW6       30.04F
$$

WIZ029-030-035-036-043>047-302100-
CENTRAL WISCONSIN

CITY           SKY/WX    TMP DP  RH WIND       PRES   REMARKS
WAUSAU         MOSUNNY   73  50  44 NW7       30.02F
MOSINEE        MOSUNNY   73  46  38 NW8       30.05F
MARSHFIELD     SUNNY     73  51  46 W7        30.05F
STEVENS POINT  MOSUNNY   72  45  38 W8        30.04F
WAUPACA        MOSUNNY   78  43  28 W7        30.02F
WAUTOMA        NOT AVBL
WISC RAPIDS    MOSUNNY   76  48  37 NE9       30.05F
CAMP DOUGLAS   NOT AVBL
$$

WIZ011>013-019>022-031-037>040-048>050-302100-
NORTHEAST WISCONSIN

CITY           SKY/WX    TMP DP  RH WIND       PRES   REMARKS
ANTIGO         MOSUNNY   70  50  47 NW6       30.04S
STURGEON BAY   SUNNY     70  48  46 W5        30.02F
GREEN BAY      MOSUNNY   75  55  49 W7        30.01F
MANITOWOC      NOT AVBL
APPLETON       PTSUNNY   72  46  40 W8        30.03F
CLINTONVILLE   PTSUNNY   73  45  35 N6        30.01F
OSHKOSH        SUNNY     73  49  42 VRB5      30.02F
$$

WIZ032>034-041-042-053>061-302100-
SOUTHWEST WISCONSIN

CITY           SKY/WX    TMP DP  RH WIND       PRES   REMARKS
LA CROSSE      SUNNY     77  56  48 NW6       30.05F
SPARTA         SUNNY     73  50  43 NW7       30.07S
VIROQUA        FAIR      74  52  46 NW12      30.07F
BOSCOBEL       MOSUNNY   81  54  39 NW12      30.05S HX  81
PRAIRIE DU CHI MOSUNNY   77  52  41 NW7       30.05F
PLATTEVILLE    FAIR      77  54  44 NW7G16    30.07S
$$

WIZ056-057-062-063-064-067-068-302100-
SOUTH CENTRAL WISCONSIN

CITY           SKY/WX    TMP DP  RH WIND       PRES   REMARKS
BARABOO/DELLS  MOSUNNY   76  47  36 NW7       30.05F
LONE ROCK      NOT AVBL
WATERTOWN      MOSUNNY   72  58  60 W7        30.03F
MADISON        MOSUNNY   76  55  48 N10       30.04F
MIDDLETON      FAIR      75  51  43 NW9       30.05F
MONROE         PTSUNNY   77  54  44 NW7       30.04F
JANESVILLE     PTSUNNY   79  54  41 N12       30.02F
$$

WIZ051-052-058>065-066-070>072-302100-
SOUTHEAST WISCONSIN

CITY           SKY/WX    TMP DP  RH WIND       PRES   REMARKS
MILWAUKEE      MOSUNNY   68  57  68 E8        30.04F
WAUKESHA       PTSUNNY   72  54  53 W3        30.04F
MILWAUKEE/TIMM MOSUNNY   72  54  53 E5        30.04S
RACINE         SUNNY     70  56  61 NE8       30.06S
BURLINGTON     SUNNY     71  55  57 N6        30.04F
KENOSHA        PTSUNNY   73  61  65 NE10      30.04S
FOND DU LAC    MOSUNNY   74  50  42 VRB5      30.03F
SHEBOYGAN      MOSUNNY   72  50  45 N7        30.02F
WEST BEND      MOSUNNY   72  50  46 NW5       30.03F
JUNEAU         MOSUNNY   72  51  47 W8        30.05S
$$

LSZ147-162-302100-
LAKE SUPERIOR

STATION/POSITION TIME  TEMP    WIND        PRES    WAVE
                       AIR SEA DIR/SP/G            HT/PER
                 (UTC) (F)     (DEG/KT/KT) (MB)    (FT/S)
W MID LAKE BUOY  1850   49 42  220/ 12/ 14 1014.6F   1/ 2
PORT WING        1900   72     240/  9/ 12 1015.9F
SAXON HARBOR     1900          270/  6/ 10 1015.9
$$

LMZ867-665-643>646-302100-
LAKE MICHIGAN

STATION/POSITION TIME  TEMP    WIND        PRES    WAVE
                       AIR SEA DIR/SP/G            HT/PER
                 (UTC) (F)     (DEG/KT/KT) (MB)    (FT/S)
N MID LAKE BUOY  1850   52 55  210/  6/  8 1016.2F   0
NORTHPORT PIER   1900   61     140/  7/ 10 1016.3S
SISTER BAY       1910   80     280/  5/  6   N/A
KEWAUNEE LAKESHO 1900   59     170/  7/  8 1017.8F
SHEBOYGAN LAKESH 1900   62     130/  7/  8 1017.3F
PORT WASHINGTON  1900   65     100/  4/  5 1017.6F
ATWATER BUOY     1900   62      70/  8     1018.3F
MILWAUKEE LAKESH 1900   63      80/  6/  7   N/A
S MID LAKE BUOY  1850   58 61  310/  8/ 10 1017.6R   1
KENOSHA   LAKESH 1900   62      40/ 12/ 13 1016.9F
$$

TC  - TEMPERATURE IN CELSIUS
VSB - VISIBILITY IN STATUTE MILES
WCI - WIND CHILL INDEX
HX  - HEAT INDEX




USA.gov is the U.S. government's official web portal to all federal, state and local government web resources and services.